UNISAT-6 (40012 NORAD) Tracking and Keplerian Element Data

This shows tracking and keplerian element data for the satellite.

Feedback or suggestion? Click here.




ElementValue
Catalog40012
NameUNISAT-6
Epoch Orbit34089
Epoch Day294.84203542
Epoch Year2020
RAAN143.569
Inclination97.6958
Eccentricity0.0057329
Argument of Perigee316.2099
Mean Anonmoly43.4572
Mean Motion14.74168886
Decay Rate2E-06
L11 40012U 14033C 20294.84203542 .00000200 00000-0 37063-4 0 9998
L22 40012 97.6958 143.5690 0057329 316.2099 43.4572 14.74168886340899

Live tracking and technical data element details for UNISAT-6 (NORAD 40012). UNISAT-6 can be tracked NOW for your location showing map with azimuth and elevation plus other details from your city location.

Track the satellite on the map from your city or location and see movement details for azimuth, elevation, latitude, longitude, range, height, and movement on the map or in text.







IsCatalogInMostPopularTable: catalog: 40012, numindb: 414
Update: records affected: 1



GetName: 40012 UNISAT-6

Hit Count: updated at: Thu, 22 Oct 2020 04:49:38 GMT